����������;��������(kVARh)
2015-08-24 00:00;1,25
2015-08-24 00:15;0
2015-08-24 00:30;0
2015-08-24 00:45;0
2015-08-24 01:00;0
2015-08-24 01:15;0
2015-08-24 01:30;0
2015-08-24 01:45;0
2015-08-24 02:00;0
2015-08-24 02:15;0
2015-08-24 02:30;0
2015-08-24 02:45;0
2015-08-24 03:00;0
2015-08-24 03:15;0
2015-08-24 03:30;0
2015-08-24 03:45;0
2015-08-24 04:00;0
2015-08-24 04:15;0
2015-08-24 04:30;0
2015-08-24 04:45;0
2015-08-24 05:00;0
2015-08-24 05:15;0
2015-08-24 05:30;0
2015-08-24 05:45;0
2015-08-24 06:00;0
2015-08-24 06:15;0
2015-08-24 06:30;0
2015-08-24 06:45;0
2015-08-24 07:00;0
2015-08-24 07:15;0
2015-08-24 07:30;0
2015-08-24 07:45;9,7
2015-08-24 08:00;10,15
2015-08-24 08:15;2,7
2015-08-24 08:30;11,65
2015-08-24 08:45;7,05
2015-08-24 09:00;11,8
2015-08-24 09:15;12,65
2015-08-24 09:30;13,55
2015-08-24 09:45;14,45
2015-08-24 10:00;23,9
2015-08-24 10:15;25,7
2015-08-24 10:30;31,05
2015-08-24 10:45;36,8
2015-08-24 11:00;32,4
2015-08-24 11:15;31,3
2015-08-24 11:30;21,95
2015-08-24 11:45;30,65
2015-08-24 12:00;31,75
2015-08-24 12:15;42,7
2015-08-24 12:30;33,9
2015-08-24 12:45;33,6
2015-08-24 13:00;37,6
2015-08-24 13:15;41,1
2015-08-24 13:30;31,2
2015-08-24 13:45;29,45
2015-08-24 14:00;32,05
2015-08-24 14:15;37,6
2015-08-24 14:30;36,35
2015-08-24 14:45;30,15
2015-08-24 15:00;26,9
2015-08-24 15:15;24,95
2015-08-24 15:30;20,35
2015-08-24 15:45;20,9
2015-08-24 16:00;20,6
2015-08-24 16:15;18,4
2015-08-24 16:30;16,5
2015-08-24 16:45;14,9
2015-08-24 17:00;16,5
2015-08-24 17:15;14,5
2015-08-24 17:30;15,9
2015-08-24 17:45;17,25
2015-08-24 18:00;17,9
2015-08-24 18:15;14,9
2015-08-24 18:30;12,85
2015-08-24 18:45;15,95
2015-08-24 19:00;16,15
2015-08-24 19:15;14,1
2015-08-24 19:30;13,95
2015-08-24 19:45;9,05
2015-08-24 20:00;10,2
2015-08-24 20:15;5,85
2015-08-24 20:30;2,7
2015-08-24 20:45;0
2015-08-24 21:00;0
2015-08-24 21:15;0
2015-08-24 21:30;0
2015-08-24 21:45;0
2015-08-24 22:00;0
2015-08-24 22:15;0
2015-08-24 22:30;0
2015-08-24 22:45;0
2015-08-24 23:00;0
2015-08-24 23:15;0
2015-08-24 23:30;0
2015-08-24 23:45;0
2015-08-25 00:00;0,45
2015-08-25 00:15;0
2015-08-25 00:30;0
2015-08-25 00:45;0
2015-08-25 01:00;0
2015-08-25 01:15;0
2015-08-25 01:30;0
2015-08-25 01:45;0
2015-08-25 02:00;0
2015-08-25 02:15;0
2015-08-25 02:30;0
2015-08-25 02:45;0
2015-08-25 03:00;0
2015-08-25 03:15;0
2015-08-25 03:30;0
2015-08-25 03:45;0
2015-08-25 04:00;0
2015-08-25 04:15;0
2015-08-25 04:30;0
2015-08-25 04:45;0
2015-08-25 05:00;0
2015-08-25 05:15;0
2015-08-25 05:30;0
2015-08-25 05:45;0
2015-08-25 06:00;0
2015-08-25 06:15;0
2015-08-25 06:30;0
2015-08-25 06:45;0
2015-08-25 07:00;0
2015-08-25 07:15;0
2015-08-25 07:30;0
2015-08-25 07:45;6,8
2015-08-25 08:00;12,6
2015-08-25 08:15;9,4
2015-08-25 08:30;4,8
2015-08-25 08:45;7
2015-08-25 09:00;13,1
2015-08-25 09:15;13,05
2015-08-25 09:30;17,05
2015-08-25 09:45;18,95
2015-08-25 10:00;19,3
2015-08-25 10:15;21,65
2015-08-25 10:30;28,9
2015-08-25 10:45;25,3
2015-08-25 11:00;22
2015-08-25 11:15;26,65
2015-08-25 11:30;27,1
2015-08-25 11:45;27,6
2015-08-25 12:00;27,9
2015-08-25 12:15;22,05
2015-08-25 12:30;19,3
2015-08-25 12:45;19,8
2015-08-25 13:00;20,4
2015-08-25 13:15;17,4
2015-08-25 13:30;27,2
2015-08-25 13:45;30,8
2015-08-25 14:00;28,95
2015-08-25 14:15;26,3
2015-08-25 14:30;31,05
2015-08-25 14:45;19
2015-08-25 15:00;19,2
2015-08-25 15:15;15,3
2015-08-25 15:30;17,2
2015-08-25 15:45;30,25
2015-08-25 16:00;28,2
2015-08-25 16:15;16,3
2015-08-25 16:30;23,2
2015-08-25 16:45;28,85
2015-08-25 17:00;25,15
2015-08-25 17:15;15,15
2015-08-25 17:30;11,6
2015-08-25 17:45;9
2015-08-25 18:00;7,85
2015-08-25 18:15;6,3
2015-08-25 18:30;6,15
2015-08-25 18:45;6,1
2015-08-25 19:00;14,4
2015-08-25 19:15;15,35
2015-08-25 19:30;11,1
2015-08-25 19:45;10,6
2015-08-25 20:00;9,95
2015-08-25 20:15;3,6
2015-08-25 20:30;0
2015-08-25 20:45;0,05
2015-08-25 21:00;0
2015-08-25 21:15;0,15
2015-08-25 21:30;0,5
2015-08-25 21:45;0
2015-08-25 22:00;0,35
2015-08-25 22:15;0
2015-08-25 22:30;0
2015-08-25 22:45;0,45
2015-08-25 23:00;0
2015-08-25 23:15;0,2
2015-08-25 23:30;0
2015-08-25 23:45;0
2015-08-26 00:00;0,1
2015-08-26 00:15;0
2015-08-26 00:30;0
2015-08-26 00:45;0
2015-08-26 01:00;0
2015-08-26 01:15;0
2015-08-26 01:30;0
2015-08-26 01:45;0
2015-08-26 02:00;0
2015-08-26 02:15;0
2015-08-26 02:30;0
2015-08-26 02:45;0
2015-08-26 03:00;0
2015-08-26 03:15;0
2015-08-26 03:30;0
2015-08-26 03:45;0
2015-08-26 04:00;0
2015-08-26 04:15;0
2015-08-26 04:30;0
2015-08-26 04:45;0
2015-08-26 05:00;0
2015-08-26 05:15;0
2015-08-26 05:30;0
2015-08-26 05:45;0
2015-08-26 06:00;0
2015-08-26 06:15;0
2015-08-26 06:30;0
2015-08-26 06:45;0
2015-08-26 07:00;0
2015-08-26 07:15;0
2015-08-26 07:30;0
2015-08-26 07:45;9
2015-08-26 08:00;23,45
2015-08-26 08:15;18,5
2015-08-26 08:30;12,35
2015-08-26 08:45;13,25
2015-08-26 09:00;27,45
2015-08-26 09:15;14,8
2015-08-26 09:30;25,7
2015-08-26 09:45;26,65
2015-08-26 10:00;23,75
2015-08-26 10:15;29,55
2015-08-26 10:30;31
2015-08-26 10:45;36,8
2015-08-26 11:00;36,05
2015-08-26 11:15;41,2
2015-08-26 11:30;49,1
2015-08-26 11:45;52,3
2015-08-26 12:00;56,7
2015-08-26 12:15;49,35
2015-08-26 12:30;49,75
2015-08-26 12:45;47,85
2015-08-26 13:00;44,75
2015-08-26 13:15;43,1
2015-08-26 13:30;43,45
2015-08-26 13:45;41,8
2015-08-26 14:00;42
2015-08-26 14:15;42,65
2015-08-26 14:30;44,1
2015-08-26 14:45;46,45
2015-08-26 15:00;40,65
2015-08-26 15:15;40,1
2015-08-26 15:30;38,9
2015-08-26 15:45;29,45
2015-08-26 16:00;30,65
2015-08-26 16:15;30,35
2015-08-26 16:30;28,55
2015-08-26 16:45;24,55
2015-08-26 17:00;25,15
2015-08-26 17:15;26,65
2015-08-26 17:30;25,6
2015-08-26 17:45;23,25
2015-08-26 18:00;22,9
2015-08-26 18:15;20,65
2015-08-26 18:30;21,5
2015-08-26 18:45;18,75
2015-08-26 19:00;18,95
2015-08-26 19:15;16,8
2015-08-26 19:30;15,1
2015-08-26 19:45;14,55
2015-08-26 20:00;17,9
2015-08-26 20:15;17,6
2015-08-26 20:30;15,3
2015-08-26 20:45;8,2
2015-08-26 21:00;7,1
2015-08-26 21:15;6,3
2015-08-26 21:30;0,1
2015-08-26 21:45;0
2015-08-26 22:00;0,15
2015-08-26 22:15;0
2015-08-26 22:30;0
2015-08-26 22:45;0
2015-08-26 23:00;0
2015-08-26 23:15;0
2015-08-26 23:30;0
2015-08-26 23:45;0
2015-08-27 00:00;0
2015-08-27 00:15;0
2015-08-27 00:30;0
2015-08-27 00:45;0
2015-08-27 01:00;0
2015-08-27 01:15;0
2015-08-27 01:30;0
2015-08-27 01:45;0
2015-08-27 02:00;0
2015-08-27 02:15;0
2015-08-27 02:30;0
2015-08-27 02:45;0
2015-08-27 03:00;0
2015-08-27 03:15;0
2015-08-27 03:30;0
2015-08-27 03:45;0
2015-08-27 04:00;0
2015-08-27 04:15;0
2015-08-27 04:30;0
2015-08-27 04:45;0
2015-08-27 05:00;0
2015-08-27 05:15;0
2015-08-27 05:30;0,05
2015-08-27 05:45;0
2015-08-27 06:00;0
2015-08-27 06:15;0,05
2015-08-27 06:30;0,05
2015-08-27 06:45;0,05
2015-08-27 07:00;0
2015-08-27 07:15;0
2015-08-27 07:30;0,15
2015-08-27 07:45;20,55
2015-08-27 08:00;36,3
2015-08-27 08:15;25,4
2015-08-27 08:30;16,85
2015-08-27 08:45;12,45
2015-08-27 09:00;22,15
2015-08-27 09:15;27,5
2015-08-27 09:30;36
2015-08-27 09:45;29,7
2015-08-27 10:00;34,4
2015-08-27 10:15;39,2
2015-08-27 10:30;35,05
2015-08-27 10:45;36,25
2015-08-27 11:00;35,8
2015-08-27 11:15;39,25
2015-08-27 11:30;35,8
2015-08-27 11:45;37,55
2015-08-27 12:00;44,6
2015-08-27 12:15;50,45
2015-08-27 12:30;48,45
2015-08-27 12:45;55,7
2015-08-27 13:00;60,05
2015-08-27 13:15;53,35
2015-08-27 13:30;48,2
2015-08-27 13:45;50,4
2015-08-27 14:00;48,5
2015-08-27 14:15;43,35
2015-08-27 14:30;44,45
2015-08-27 14:45;53,7
2015-08-27 15:00;50,35
2015-08-27 15:15;41,2
2015-08-27 15:30;47,15
2015-08-27 15:45;52,15
2015-08-27 16:00;43,2
2015-08-27 16:15;44,75
2015-08-27 16:30;44,65
2015-08-27 16:45;37,6
2015-08-27 17:00;40,75
2015-08-27 17:15;38,85
2015-08-27 17:30;36,2
2015-08-27 17:45;32,7
2015-08-27 18:00;33,25
2015-08-27 18:15;32,5
2015-08-27 18:30;29,7
2015-08-27 18:45;32,25
2015-08-27 19:00;25,55
2015-08-27 19:15;24,85
2015-08-27 19:30;23,6
2015-08-27 19:45;22,05
2015-08-27 20:00;19,75
2015-08-27 20:15;9,75
2015-08-27 20:30;4,75
2015-08-27 20:45;1,15
2015-08-27 21:00;0,5
2015-08-27 21:15;0
2015-08-27 21:30;0
2015-08-27 21:45;0
2015-08-27 22:00;0
2015-08-27 22:15;0
2015-08-27 22:30;0
2015-08-27 22:45;0
2015-08-27 23:00;0
2015-08-27 23:15;0
2015-08-27 23:30;0
2015-08-27 23:45;0
2015-08-28 00:00;0,45
2015-08-28 00:15;0
2015-08-28 00:30;0
2015-08-28 00:45;0
2015-08-28 01:00;0
2015-08-28 01:15;0
2015-08-28 01:30;0
2015-08-28 01:45;0
2015-08-28 02:00;0
2015-08-28 02:15;0
2015-08-28 02:30;0
2015-08-28 02:45;0
2015-08-28 03:00;0
2015-08-28 03:15;0
2015-08-28 03:30;0
2015-08-28 03:45;0
2015-08-28 04:00;0
2015-08-28 04:15;0
2015-08-28 04:30;0
2015-08-28 04:45;0
2015-08-28 05:00;0
2015-08-28 05:15;0
2015-08-28 05:30;0
2015-08-28 05:45;0
2015-08-28 06:00;0
2015-08-28 06:15;0,05
2015-08-28 06:30;0
2015-08-28 06:45;0,3
2015-08-28 07:00;0
2015-08-28 07:15;0,05
2015-08-28 07:30;0
2015-08-28 07:45;17,3
2015-08-28 08:00;28,7
2015-08-28 08:15;25,3
2015-08-28 08:30;19,85
2015-08-28 08:45;12,55
2015-08-28 09:00;33,1
2015-08-28 09:15;41,25
2015-08-28 09:30;48,05
2015-08-28 09:45;44,2
2015-08-28 10:00;41,95
2015-08-28 10:15;44,8
2015-08-28 10:30;51,7
2015-08-28 10:45;55,15
2015-08-28 11:00;47,25
2015-08-28 11:15;53,6
2015-08-28 11:30;49,25
2015-08-28 11:45;50,8
2015-08-28 12:00;51,05
2015-08-28 12:15;49,45
2015-08-28 12:30;53,4
2015-08-28 12:45;55,45
2015-08-28 13:00;48,1
2015-08-28 13:15;50,3
2015-08-28 13:30;54,05
2015-08-28 13:45;53,05
2015-08-28 14:00;50,95
2015-08-28 14:15;49,55
2015-08-28 14:30;48,4
2015-08-28 14:45;48,95
2015-08-28 15:00;47,2
2015-08-28 15:15;42,3
2015-08-28 15:30;59,15
2015-08-28 15:45;64,25
2015-08-28 16:00;60,7
2015-08-28 16:15;56,95
2015-08-28 16:30;57,15
2015-08-28 16:45;50,25
2015-08-28 17:00;47,9
2015-08-28 17:15;42,4
2015-08-28 17:30;44,05
2015-08-28 17:45;46,1
2015-08-28 18:00;42,1
2015-08-28 18:15;40,05
2015-08-28 18:30;33,4
2015-08-28 18:45;36,1
2015-08-28 19:00;27,95
2015-08-28 19:15;30,65
2015-08-28 19:30;29,7
2015-08-28 19:45;27,6
2015-08-28 20:00;25,05
2015-08-28 20:15;20,3
2015-08-28 20:30;17,15
2015-08-28 20:45;6,95
2015-08-28 21:00;6,75
2015-08-28 21:15;4,2
2015-08-28 21:30;0,05
2015-08-28 21:45;0
2015-08-28 22:00;0
2015-08-28 22:15;0
2015-08-28 22:30;0
2015-08-28 22:45;0
2015-08-28 23:00;0
2015-08-28 23:15;0,05
2015-08-28 23:30;0
2015-08-28 23:45;0
2015-08-29 00:00;1,45
2015-08-29 00:15;0,05
2015-08-29 00:30;0
2015-08-29 00:45;0
2015-08-29 01:00;0,35
2015-08-29 01:15;0
2015-08-29 01:30;0,25
2015-08-29 01:45;0
2015-08-29 02:00;0
2015-08-29 02:15;0
2015-08-29 02:30;0
2015-08-29 02:45;0
2015-08-29 03:00;0
2015-08-29 03:15;0
2015-08-29 03:30;0
2015-08-29 03:45;0
2015-08-29 04:00;0
2015-08-29 04:15;0
2015-08-29 04:30;0
2015-08-29 04:45;0
2015-08-29 05:00;0
2015-08-29 05:15;0
2015-08-29 05:30;0
2015-08-29 05:45;0
2015-08-29 06:00;0
2015-08-29 06:15;0
2015-08-29 06:30;0
2015-08-29 06:45;0
2015-08-29 07:00;0
2015-08-29 07:15;0
2015-08-29 07:30;0
2015-08-29 07:45;9,85
2015-08-29 08:00;6,35
2015-08-29 08:15;0,75
2015-08-29 08:30;0,15
2015-08-29 08:45;0,05
2015-08-29 09:00;0,65
2015-08-29 09:15;0,65
2015-08-29 09:30;0,3
2015-08-29 09:45;0,1
2015-08-29 10:00;0
2015-08-29 10:15;0,05
2015-08-29 10:30;0
2015-08-29 10:45;3
2015-08-29 11:00;7
2015-08-29 11:15;4,5
2015-08-29 11:30;3,4
2015-08-29 11:45;15,7
2015-08-29 12:00;13,45
2015-08-29 12:15;19,7
2015-08-29 12:30;14,75
2015-08-29 12:45;20,8
2015-08-29 13:00;20,2
2015-08-29 13:15;19,6
2015-08-29 13:30;16,1
2015-08-29 13:45;17,25
2015-08-29 14:00;17,8
2015-08-29 14:15;18,2
2015-08-29 14:30;20,75
2015-08-29 14:45;23,9
2015-08-29 15:00;22,8
2015-08-29 15:15;25,3
2015-08-29 15:30;29,1
2015-08-29 15:45;30,65
2015-08-29 16:00;32,65
2015-08-29 16:15;20,85
2015-08-29 16:30;22
2015-08-29 16:45;22,95
2015-08-29 17:00;23,6
2015-08-29 17:15;18,4
2015-08-29 17:30;18,35
2015-08-29 17:45;16,1
2015-08-29 18:00;14,1
2015-08-29 18:15;13,8
2015-08-29 18:30;13,4
2015-08-29 18:45;10,15
2015-08-29 19:00;9,2
2015-08-29 19:15;9,1
2015-08-29 19:30;10,6
2015-08-29 19:45;6,8
2015-08-29 20:00;11,05
2015-08-29 20:15;14
2015-08-29 20:30;16,75
2015-08-29 20:45;9,3
2015-08-29 21:00;10,2
2015-08-29 21:15;12,85
2015-08-29 21:30;14,95
2015-08-29 21:45;7,9
2015-08-29 22:00;7,7
2015-08-29 22:15;4,3
2015-08-29 22:30;5,75
2015-08-29 22:45;13,65
2015-08-29 23:00;17,1
2015-08-29 23:15;18,05
2015-08-29 23:30;9,65
2015-08-29 23:45;10,5
2015-08-30 00:00;10,8
2015-08-30 00:15;3,35
2015-08-30 00:30;1,4
2015-08-30 00:45;2,85
2015-08-30 01:00;6,8
2015-08-30 01:15;7,45
2015-08-30 01:30;3,45
2015-08-30 01:45;2,35
2015-08-30 02:00;3,65
2015-08-30 02:15;7,9
2015-08-30 02:30;9,6
2015-08-30 02:45;10,4
2015-08-30 03:00;8,05
2015-08-30 03:15;7,95
2015-08-30 03:30;7,6
2015-08-30 03:45;8,7
2015-08-30 04:00;8,1
2015-08-30 04:15;9,3
2015-08-30 04:30;7,2
2015-08-30 04:45;9,4
2015-08-30 05:00;8,9
2015-08-30 05:15;9,2
2015-08-30 05:30;8,9
2015-08-30 05:45;7,3
2015-08-30 06:00;8,65
2015-08-30 06:15;9,8
2015-08-30 06:30;10,8
2015-08-30 06:45;10,55
2015-08-30 07:00;9,45
2015-08-30 07:15;4,8
2015-08-30 07:30;6,45
2015-08-30 07:45;5,9
2015-08-30 08:00;4,85
2015-08-30 08:15;4,75
2015-08-30 08:30;3,7
2015-08-30 08:45;8,65
2015-08-30 09:00;7,65
2015-08-30 09:15;7,2
2015-08-30 09:30;6,2
2015-08-30 09:45;5,4
2015-08-30 10:00;10,35
2015-08-30 10:15;14,45
2015-08-30 10:30;14,55
2015-08-30 10:45;13
2015-08-30 11:00;11,75
2015-08-30 11:15;12,7
2015-08-30 11:30;10,95
2015-08-30 11:45;8,5
2015-08-30 12:00;8,05
2015-08-30 12:15;9,1
2015-08-30 12:30;10,85
2015-08-30 12:45;10,3
2015-08-30 13:00;10,25
2015-08-30 13:15;9,1
2015-08-30 13:30;9,05
2015-08-30 13:45;9,95
2015-08-30 14:00;10,85
2015-08-30 14:15;10,35
2015-08-30 14:30;11,1
2015-08-30 14:45;13,1
2015-08-30 15:00;12,9
2015-08-30 15:15;14,6
2015-08-30 15:30;13,8
2015-08-30 15:45;14,2
2015-08-30 16:00;14,3
2015-08-30 16:15;14,55
2015-08-30 16:30;14,05
2015-08-30 16:45;13,25
2015-08-30 17:00;13,1
2015-08-30 17:15;14,9
2015-08-30 17:30;13,25
2015-08-30 17:45;14,75
2015-08-30 18:00;11,6
2015-08-30 18:15;10,15
2015-08-30 18:30;11,1
2015-08-30 18:45;7,8
2015-08-30 19:00;5,95
2015-08-30 19:15;7,75
2015-08-30 19:30;9,15
2015-08-30 19:45;8,95
2015-08-30 20:00;9,45
2015-08-30 20:15;9,2
2015-08-30 20:30;10,65
2015-08-30 20:45;9,15
2015-08-30 21:00;9,65
2015-08-30 21:15;9
2015-08-30 21:30;6,95
2015-08-30 21:45;6,2
2015-08-30 22:00;5,65
2015-08-30 22:15;7,8
2015-08-30 22:30;9,4
2015-08-30 22:45;11,8
2015-08-30 23:00;14,3
2015-08-30 23:15;15,4
2015-08-30 23:30;14,35
2015-08-30 23:45;16,15

